GW2644 Weather Reports


Display with metric or nautical units.
time (UTC)temp
F
wind
direction
speed
MPH
gust
MPH
rain 1hr
in
rain 24hr
in
rain mn
in
humidity
%
barometer
mb
20260903100946 66 262 0.0 0.0 0.00 0.00 0.00 86 1018.3
20260903100441 66 194 0.0 0.0 0.00 0.00 0.00 86 1018.5
20260903095938 66 194 0.0 1.0 0.00 0.00 0.00 86 1018.5
20260903095432 66 261 0.0 0.0 0.00 0.00 0.00 87 1018.2
20260903094928 66 261 0.0 0.0 0.00 0.00 0.00 86 1018.5
20260903094427 66 261 0.0 0.0 0.00 0.00 0.00 86 1018.4
20260903093923 66 261 0.0 0.0 0.00 0.00 0.00 86 1018.5
20260903093423 66 261 0.0 0.0 0.00 0.00 0.00 86 1018.7
20260903092919 66 195 0.0 0.0 0.00 0.00 0.00 86 1018.7
20260903092414 66 195 0.0 0.0 0.00 0.00 0.00 86 1018.6
20260903091912 66 195 0.0 0.0 0.00 0.00 0.00 86 1018.7
20260903091411 67 195 0.0 0.0 0.00 0.00 0.00 86 1018.8
20260903090906 67 195 0.0 0.0 0.00 0.00 0.00 86 1018.6
20260903090402 68 195 0.0 0.0 0.00 0.00 0.00 87 1018.6
20260903085900 65 270 0.0 0.0 0.00 0.00 0.00 90 1018.9
20260903085359 66 270 0.0 0.0 0.00 0.00 0.00 89 1018.9
20260903084858 66 270 0.0 0.0 0.00 0.00 0.00 89 1019.0
20260903084357 66 270 0.0 0.0 0.00 0.00 0.00 89 1019.0
20260903083853 67 270 0.0 0.0 0.00 0.00 0.00 89 1019.0
20260903083348 67 90 0.0 0.0 0.00 0.00 0.00 89 1019.0
20260903082847 68 90 0.0 0.0 0.00 0.00 0.00 89 1019.2
20260903082342 67 172 0.0 0.0 0.00 0.00 0.00 90 1018.8
20260903081837 66 172 0.0 0.0 0.00 0.00 0.00 89 1019.0
20260903081333 66 172 0.0 0.0 0.00 0.00 0.00 88 1019.0
20260903080829 67 172 0.0 0.0 0.00 0.00 0.00 88 1019.0
20260903080326 67 172 0.0 0.0 0.00 0.00 0.00 88 1019.0
20260903075825 67 172 0.0 0.0 0.00 0.00 0.00 87 1019.1
20260903075321 67 172 0.0 0.0 0.00 0.00 0.00 87 1019.1
20260903074820 68 172 0.0 0.0 0.00 0.00 0.00 87 1019.1
20260903074315 68 172 0.0 0.0 0.00 0.00 0.00 87 1019.0
20260903073811 68 172 0.0 0.0 0.00 0.00 0.00 86 1019.1
20260903073306 68 172 0.0 0.0 0.00 0.00 0.00 85 1019.1
20260903072802 68 172 0.0 0.0 0.00 0.00 0.00 84 1019.1
20260903072258 69 172 0.0 0.0 0.00 0.00 0.00 83 1019.0
20260903071754 69 172 0.0 0.0 0.00 0.00 0.00 83 1019.0
20260903071249 69 172 0.0 0.0 0.00 0.00 0.00 83 1019.1
20260903070744 69 172 0.0 0.0 0.00 0.00 0.00 83 1018.9
20260903070240 68 172 0.0 0.0 0.00 0.00 0.00 82 1019.0
20260903065735 69 174 0.0 0.0 0.00 0.00 0.00 80 1019.1
20260903065234 69 174 0.0 0.0 0.00 0.00 0.00 79 1019.1
20260903064733 70 174 0.0 0.0 0.00 0.00 0.00 80 1019.0
20260903064229 69 174 0.0 0.0 0.00 0.00 0.00 80 1019.0
20260903063725 69 174 0.0 0.0 0.00 0.00 0.00 79 1019.1
20260903063225 70 174 0.0 0.0 0.00 0.00 0.00 78 1018.9
20260903062715 69 174 0.0 0.0 0.00 0.00 0.00 79 1018.9
20260903062214 69 174 0.0 0.0 0.00 0.00 0.00 78 1019.1
20260903061711 70 174 0.0 0.0 0.00 0.00 0.00 77 1018.8
20260903061209 69 174 0.0 0.0 0.00 0.00 0.00 79 1018.9
20260903060705 69 174 0.0 0.0 0.00 0.00 0.00 78 1018.9
20260903060154 69 174 0.0 1.0 0.00 0.00 0.00 78 1018.8
20260903055652 69 120 0.0 2.0 0.00 0.00 0.00 77 1018.9
20260903055151 69 172 0.0 0.0 0.00 0.00 0.00 76 1018.9
20260903054645 69 172 0.0 0.0 0.00 0.00 0.00 76 1018.9
20260903054141 69 172 0.0 0.0 0.00 0.00 0.00 76 1018.9
20260903053637 69 270 0.0 0.0 0.00 0.00 0.00 76 1018.7
20260903053132 69 270 0.0 0.0 0.00 0.00 0.00 77 1018.8
20260903052628 69 270 0.0 0.0 0.00 0.00 0.00 76 1018.9
20260903052123 69 270 0.0 0.0 0.00 0.00 0.00 75 1018.8
20260903051618 69 270 0.0 0.0 0.00 0.00 0.00 76 1018.8
20260903051113 70 270 0.0 0.0 0.00 0.00 0.00 75 1018.9
20260903050608 70 270 0.0 0.0 0.00 0.00 0.00 75 1018.9
20260903045602 70 270 0.0 0.0 0.00 0.00 0.00 74 1018.7
20260903045059 70 270 0.0 0.0 0.00 0.00 0.00 74 1018.7
20260903044554 71 270 0.0 0.0 0.00 0.00 0.00 74 1018.8
20260903044050 71 270 0.0 0.0 0.00 0.00 0.00 74 1018.7
20260903043545 71 270 0.0 0.0 0.00 0.00 0.00 74 1018.9
20260903043045 71 278 0.0 0.0 0.00 0.00 0.00 73 1018.5
20260903042539 71 278 0.0 0.0 0.00 0.00 0.00 74 1018.6
20260903042035 71 278 0.0 0.0 0.00 0.00 0.00 74 1018.9
20260903041532 71 278 0.0 1.0 0.00 0.00 0.00 73 1018.9
20260903041027 71 279 0.0 0.0 0.00 0.00 0.00 74 1018.4
20260903040525 71 215 0.0 1.0 0.00 0.00 0.00 74 1018.8
20260903040023 71 270 0.0 0.0 0.00 0.00 0.00 74 1018.5
20260903035517 71 246 0.0 0.0 0.00 0.00 0.00 74 1018.5
20260903035013 71 254 0.0 2.0 0.00 0.00 0.00 74 1018.5
20260903034508 71 255 0.0 2.0 0.00 0.00 0.00 73 1018.3
20260903034007 71 261 0.0 2.0 0.00 0.00 0.00 73 1018.3
20260903033503 71 270 0.0 2.0 0.00 0.00 0.00 73 1018.3
20260903032958 71 286 0.0 2.0 0.00 0.00 0.00 72 1018.2
20260903032448 71 237 2.0 3.0 0.00 0.00 0.00 72 1018.1
20260903031943 71 243 2.0 2.0 0.00 0.00 0.00 71 1018.2
20260903031443 71 253 2.0 2.0 0.00 0.00 0.00 71 1018.2
20260903030938 72 286 1.0 2.0 0.00 0.00 0.00 71 1018.2
20260903030434 72 255 1.0 5.0 0.00 0.00 0.00 69 1018.1
20260903025930 72 234 0.0 3.0 0.00 0.00 0.00 70 1018.1
20260903025425 72 270 2.0 3.0 0.00 0.00 0.00 69 1018.2
20260903024920 73 325 0.0 4.0 0.00 0.00 0.00 69 1018.2
20260903024414 73 257 2.0 3.0 0.00 0.00 0.00 68 1018.1
20260903023909 73 263 0.0 3.0 0.00 0.00 0.00 67 1018.0
20260903023405 73 258 2.0 4.0 0.00 0.00 0.00 66 1017.9
20260903022900 73 243 2.0 4.0 0.00 0.00 0.00 66 1018.2
20260903022359 74 253 2.0 2.0 0.00 0.00 0.00 66 1018.1
20260903021857 74 270 2.0 3.0 0.00 0.00 0.00 65 1018.2
20260903021354 74 276 1.0 3.0 0.00 0.00 0.00 63 1017.7
20260903020853 74 0 0.0 5.0 0.00 0.00 0.00 64 1017.9
20260903020349 74 253 3.0 3.0 0.00 0.00 0.00 65 1017.8
20260903015843 75 252 0.0 4.0 0.00 0.00 0.00 65 1017.8
20260903015338 75 337 0.0 5.0 0.00 0.00 0.00 63 1017.9
20260903014833 76 247 2.0 4.0 0.00 0.00 0.00 62 1017.7
20260903014328 77 246 2.0 3.0 0.00 0.00 0.00 62 1017.9
20260903013823 76 248 6.0 6.0 0.00 0.00 0.00 62 1017.9
20260903013322 77 228 0.0 5.0 0.00 0.00 0.00 61 1017.8
20260903012821 77 253 2.0 6.0 0.00 0.00 0.00 60 1018.1
20260903012316 78 289 0.0 4.0 0.00 0.00 0.00 61 1017.7
20260903011815 78 245 2.0 4.0 0.00 0.00 0.00 59 1017.6
20260903011314 78 340 0.0 7.0 0.00 0.00 0.00 58 1017.6
20260903010809 79 239 2.0 3.0 0.00 0.00 0.00 57 1017.6
20260903010300 79 251 1.0 5.0 0.00 0.00 0.00 59 1017.6
20260903005758 79 328 3.0 5.0 0.00 0.00 0.00 56 1017.7
20260903005253 79 245 0.0 6.0 0.00 0.00 0.00 56 1017.7
20260903004749 79 255 5.0 6.0 0.00 0.00 0.00 56 1017.5
20260903004244 79 246 2.0 6.0 0.00 0.00 0.00 56 1017.8
20260903003740 80 294 0.0 7.0 0.00 0.00 0.00 54 1017.5
20260903003235 80 9 2.0 4.0 0.00 0.00 0.00 54 1017.5
20260903002729 80 246 1.0 6.0 0.00 0.00 0.00 55 1017.5
20260903002224 80 248 0.0 5.0 0.00 0.00 0.00 54 1017.6
20260903001719 80 270 1.0 5.0 0.00 0.00 0.00 54 1017.8
20260903001218 81 239 0.0 5.0 0.00 0.00 0.00 51 1017.7
20260903000714 81 270 4.0 5.0 0.00 0.00 0.00 50 1017.5
20260903000208 81 270 0.0 4.0 0.00 0.00 0.00 49 1017.8
20260902235706 81 252 2.0 5.0 0.00 0.00 0.00 49 1017.6
20260902235202 81 180 0.0 6.0 0.00 0.00 0.00 49 1017.6
20260902234701 81 258 0.0 4.0 0.00 0.00 0.00 49 1017.5
20260902234200 82 353 3.0 6.0 0.00 0.00 0.00 48 1017.7
20260902233655 81 0 0.0 3.0 0.00 0.00 0.00 48 1017.6
20260902233155 83 290 5.0 7.0 0.00 0.00 0.00 48 1017.8
20260902232654 84 217 3.0 5.0 0.00 0.00 0.00 45 1017.9
20260902232153 83 225 3.0 3.0 0.00 0.00 0.00 43 1017.5
20260902231648 83 285 0.0 3.0 0.00 0.00 0.00 43 1017.5
20260902231142 81 254 0.0 3.0 0.00 0.00 0.00 46 1017.7
20260902230638 83 252 2.0 5.0 0.00 0.00 0.00 47 1017.7
20260902230136 82 191 2.0 3.0 0.00 0.00 0.00 48 1017.8
20260902225632 82 275 2.0 4.0 0.00 0.00 0.00 45 1018.0
20260902225131 82 209 0.0 6.0 0.00 0.00 0.00 46 1018.0
20260902224630 82 225 2.0 2.0 0.00 0.00 0.00 47 1018.0
20260902224126 82 211 0.0 5.0 0.00 0.00 0.00 48 1017.9
20260902223622 82 241 5.0 5.0 0.00 0.00 0.00 47 1018.1
20260902223121 81 255 0.0 2.0 0.00 0.00 0.00 47 1018.3
20260902222620 82 237 2.0 4.0 0.00 0.00 0.00 42 1018.4
20260902222119 83 202 2.0 2.0 0.00 0.00 0.00 41 1018.2
20260902221613 82 258 0.0 6.0 0.00 0.00 0.00 43 1018.3
20260902221108 80 334 1.0 3.0 0.00 0.00 0.00 44 1018.4
20260902220604 84 234 0.0 3.0 0.00 0.00 0.00 47 1018.5
20260902220058 83 234 1.0 3.0 0.00 0.00 0.00 45 1018.6
20260902215554 82 225 0.0 4.0 0.00 0.00 0.00 48 1018.6
20260902215049 81 270 2.0 5.0 0.00 0.00 0.00 46 1018.7
20260902214544 79 270 0.0 4.0 0.00 0.00 0.00 49 1018.8
20260902214043 82 212 2.0 4.0 0.00 0.00 0.00 47 1018.7
20260902213539 80 148 2.0 5.0 0.00 0.00 0.00 50 1018.8
20260902213038 81 236 4.0 6.0 0.00 0.00 0.00 50 1019.1
20260902212534 81 270 4.0 8.0 0.00 0.00 0.00 52 1019.2
20260902212030 81 246 0.0 9.0 0.00 0.00 0.00 52 1018.9
20260902211526 81 246 3.0 4.0 0.00 0.00 0.00 53 1019.2
20260902211020 81 217 5.0 7.0 0.00 0.00 0.00 55 1019.1
20260902210515 82 255 3.0 5.0 0.00 0.00 0.00 51 1019.1
20260902210014 81 208 0.0 3.0 0.00 0.00 0.00 46 1019.3
20260902205508 81 195 1.0 3.0 0.00 0.00 0.00 48 1019.1
20260902205004 81 202 2.0 5.0 0.00 0.00 0.00 46 1019.0
20260902204503 80 248 2.0 3.0 0.00 0.00 0.00 50 1019.2
20260902203959 80 235 0.0 6.0 0.00 0.00 0.00 53 1019.1
20260902203454 80 166 0.0 2.0 0.00 0.00 0.00 51 1019.0
20260902202953 81 222 3.0 4.0 0.00 0.00 0.00 52 1019.2
20260902202449 78 7 1.0 2.0 0.00 0.00 0.00 52 1019.4
20260902201946 78 115 2.0 5.0 0.00 0.00 0.00 54 1019.3
20260902201441 80 77 1.0 4.0 0.00 0.00 0.00 53 1019.6
20260902200940 79 15 0.0 2.0 0.00 0.00 0.00 50 1019.5
20260902200435 79 82 1.0 2.0 0.00 0.00 0.00 51 1019.4
20260902195931 77 200 0.0 3.0 0.00 0.00 0.00 54 1019.7
20260902195426 79 192 1.0 4.0 0.00 0.00 0.00 53 1019.7
20260902194925 77 20 0.0 1.0 0.00 0.00 0.00 54 1019.9
20260902194420 79 225 2.0 5.0 0.00 0.00 0.00 54 1019.6
20260902193915 79 213 3.0 3.0 0.00 0.00 0.00 54 1019.7
20260902193411 80 276 2.0 3.0 0.00 0.00 0.00 53 1019.8
20260902192909 78 180 0.0 2.0 0.00 0.00 0.00 55 1019.8
20260902192409 76 249 0.0 3.0 0.00 0.00 0.00 58 1019.9
20260902191903 77 357 2.0 3.0 0.00 0.00 0.00 60 1019.9
20260902191358 77 257 0.0 2.0 0.00 0.00 0.00 57 1020.0
20260902190858 78 215 1.0 2.0 0.00 0.00 0.00 60 1019.8
20260902190353 77 261 0.0 1.0 0.00 0.00 0.00 59 1020.3
20260902185849 78 145 0.0 2.0 0.00 0.00 0.00 58 1020.1
20260902185345 77 120 1.0 2.0 0.00 0.00 0.00 61 1020.3
20260902184840 77 257 1.0 3.0 0.00 0.00 0.00 58 1020.3
20260902184335 77 123 2.0 2.0 0.00 0.00 0.00 59 1020.2
20260902183825 75 246 0.0 3.0 0.00 0.00 0.00 60 1020.1
20260902183321 75 90 0.0 3.0 0.00 0.00 0.00 61 1020.4
20260902182817 78 98 1.0 2.0 0.00 0.00 0.00 60 1020.5
20260902182313 77 114 0.0 2.0 0.00 0.00 0.00 62 1020.4
20260902181809 75 203 1.0 2.0 0.00 0.00 0.00 62 1020.6
20260902181304 74 243 0.0 3.0 0.00 0.00 0.00 64 1020.3
20260902180758 74 228 2.0 2.0 0.00 0.00 0.00 63 1020.5
20260902180255 74 203 0.0 2.0 0.00 0.00 0.00 62 1020.5
20260902175749 74 123 0.0 2.0 0.00 0.00 0.00 65 1020.5
20260902175245 74 270 0.0 3.0 0.00 0.00 0.00 65 1020.6
20260902174740 74 105 0.0 2.0 0.00 0.00 0.00 64 1020.4
20260902174237 72 90 0.0 0.0 0.00 0.00 0.00 68 1020.7
20260902173731 72 194 1.0 3.0 0.00 0.00 0.00 67 1020.6
20260902173226 71 348 1.0 3.0 0.00 0.00 0.00 68 1020.5
20260902172720 72 201 2.0 3.0 0.00 0.00 0.00 66 1020.5
20260902172220 73 214 0.0 2.0 0.00 0.00 0.00 66 1020.3
20260902171715 72 212 2.0 2.0 0.00 0.00 0.00 65 1020.4
20260902171210 73 168 0.0 1.0 0.00 0.00 0.00 67 1020.3
20260902170707 73 213 2.0 3.0 0.00 0.00 0.00 68 1020.3
20260902170202 71 195 0.0 1.0 0.00 0.00 0.00 68 1020.5
20260902165656 70 263 0.0 2.0 0.00 0.00 0.00 70 1020.2
20260902165150 70 263 0.0 2.0 0.00 0.00 0.00 69 1020.4
20260902164646 70 270 0.0 2.0 0.00 0.00 0.00 70 1020.3
20260902164145 72 106 0.0 2.0 0.00 0.00 0.00 71 1020.4
20260902163640 72 203 0.0 1.0 0.00 0.00 0.00 70 1020.5
20260902163139 70 195 0.0 3.0 0.00 0.00 0.00 73 1020.5
20260902162638 70 206 0.0 2.0 0.00 0.00 0.00 73 1020.4
20260902162133 72 90 0.0 3.0 0.00 0.00 0.00 73 1020.1
20260902161628 71 8 0.0 2.0 0.00 0.00 0.00 74 1020.5
20260902161124 70 105 0.0 1.0 0.00 0.00 0.00 77 1020.3
20260902160620 69 240 0.0 3.0 0.00 0.00 0.00 79 1020.2
20260902160115 69 0 0.0 0.0 0.00 0.00 0.00 79 1020.5
20260902155613 68 120 0.0 0.0 0.00 0.00 0.00 81 1020.3
20260902155112 70 111 0.0 1.0 0.00 0.00 0.00 82 1020.3
20260902154607 69 172 0.0 0.0 0.00 0.00 0.00 83 1020.2
20260902154102 69 353 0.0 1.0 0.00 0.00 0.00 83 1020.3
20260902153601 68 126 0.0 1.0 0.00 0.00 0.00 83 1020.4
20260902153056 68 12 0.0 1.0 0.00 0.00 0.00 84 1020.3
20260902152553 68 249 0.0 2.0 0.00 0.00 0.00 84 1020.3
20260902152048 68 270 0.0 0.0 0.00 0.00 0.00 86 1020.4
20260902151544 68 270 0.0 0.0 0.00 0.00 0.00 85 1020.2
20260902151043 67 261 0.0 0.0 0.00 0.00 0.00 86 1020.3
20260902150538 66 261 0.0 2.0 0.00 0.00 0.00 86 1020.3
20260902150033 66 270 0.0 0.0 0.00 0.00 0.00 87 1020.3
20260902145523 65 254 0.0 1.0 0.00 0.00 0.00 88 1020.1
20260902145022 64 209 0.0 0.0 0.00 0.00 0.00 90 1020.2
20260902144514 64 209 0.0 1.0 0.00 0.00 0.00 91 1020.2
20260902144014 64 254 0.0 0.0 0.00 0.00 0.00 92 1020.4
20260902143509 63 254 0.0 1.0 0.00 0.00 0.00 93 1020.2
20260902143004 63 270 0.0 0.0 0.00 0.00 0.00 94 1020.1
20260902142500 63 254 0.0 0.0 0.00 0.00 0.00 95 1019.8
20260902141955 62 254 0.0 0.0 0.00 0.00 0.00 95 1019.9
20260902141449 61 254 0.0 0.0 0.00 0.00 0.00 95 1020.0
20260902140944 61 254 0.0 0.0 0.00 0.00 0.00 94 1019.9
20260902140439 61 254 0.0 0.0 0.00 0.00 0.00 95 1020.0
20260902135938 61 254 0.0 0.0 0.00 0.00 0.00 95 1019.8
20260902135435 60 254 0.0 0.0 0.00 0.00 0.00 94 1019.6
20260902134933 61 254 0.0 0.0 0.00 0.00 0.00 94 1019.7
20260902134430 61 254 0.0 0.0 0.00 0.00 0.00 94 1019.6
20260902133924 61 254 0.0 0.0 0.00 0.00 0.00 94 1019.5
20260902133419 61 254 0.0 0.0 0.00 0.00 0.00 94 1019.5
20260902132914 60 254 0.0 0.0 0.00 0.00 0.00 94 1019.4
20260902132409 60 254 0.0 0.0 0.00 0.00 0.00 94 1019.4
20260902131904 60 254 0.0 0.0 0.00 0.00 0.00 93 1019.5
20260902131401 60 254 0.0 0.0 0.00 0.00 0.00 93 1019.5
20260902130900 60 254 0.0 0.0 0.00 0.00 0.00 93 1019.4
20260902130356 61 254 0.0 0.0 0.00 0.00 0.00 94 1019.5
20260902125850 60 254 0.0 0.0 0.00 0.00 0.00 93 1019.4
20260902125347 61 254 0.0 0.0 0.00 0.00 0.00 93 1019.4
20260902124843 61 254 0.0 0.0 0.00 0.00 0.00 93 1019.5
20260902124339 61 254 0.0 0.0 0.00 0.00 0.00 93 1019.6
20260902123833 61 254 0.0 0.0 0.00 0.00 0.00 93 1019.6
20260902123330 61 254 0.0 0.0 0.00 0.00 0.00 93 1019.5
20260902122828 61 254 0.0 0.0 0.00 0.00 0.00 92 1019.5
20260902122325 61 254 0.0 0.0 0.00 0.00 0.00 92 1019.6
20260902121824 61 254 0.0 0.0 0.00 0.00 0.00 92 1019.5
20260902121319 61 254 0.0 0.0 0.00 0.00 0.00 92 1019.7
20260902120814 61 254 0.0 0.0 0.00 0.00 0.00 92 1019.8
20260902120311 61 254 0.0 0.0 0.00 0.00 0.00 92 1019.4
20260902115805 62 254 0.0 0.0 0.00 0.00 0.00 92 1019.7
20260902115306 62 254 0.0 0.0 0.00 0.00 0.00 92 1019.5
20260902114758 62 254 0.0 0.0 0.00 0.00 0.00 92 1019.5
20260902114254 62 254 0.0 0.0 0.00 0.00 0.00 92 1019.5
20260902113754 62 254 0.0 0.0 0.00 0.00 0.00 92 1019.6
20260902113249 62 254 0.0 0.0 0.00 0.00 0.00 92 1019.7
20260902112748 62 254 0.0 0.0 0.00 0.00 0.00 92 1019.9
20260902112246 62 254 0.0 0.0 0.00 0.00 0.00 91 1019.6
20260902111740 62 254 0.0 0.0 0.00 0.00 0.00 92 1019.5
20260902111237 62 254 0.0 0.0 0.00 0.00 0.00 91 1019.9
20260902110732 62 254 0.0 0.0 0.00 0.00 0.00 91 1019.8
20260902110228 62 254 0.0 0.0 0.00 0.00 0.00 91 1019.6
20260902105722 63 254 0.0 0.0 0.00 0.00 0.00 91 1019.8
20260902105217 63 254 0.0 0.0 0.00 0.00 0.00 91 1019.7
20260902104713 63 254 0.0 0.0 0.00 0.00 0.00 91 1019.6
20260902104209 63 254 0.0 0.0 0.00 0.00 0.00 91 1019.8
20260902103708 63 254 0.0 0.0 0.00 0.00 0.00 91 1019.6
20260902103203 63 254 0.0 0.0 0.00 0.00 0.00 91 1019.8
20260902102658 63 254 0.0 0.0 0.00 0.00 0.00 90 1019.9
20260902102155 62 254 0.0 0.0 0.00 0.00 0.00 90 1019.7
20260902101650 63 254 0.0 0.0 0.00 0.00 0.00 90 1019.8
20260902101150 62 254 0.0 0.0 0.00 0.00 0.00 89 1019.8